Tracking 20626 objects as of 8-Apr-2020
HD Live streaming from Space Station
objects crossing your sky now

AEROCUBE 2

Track AEROCUBE 2 now!
10-day predictions
AEROCUBE 2 is classified as:


NORAD ID: 31133
Int'l Code: 2007-012R
Perigee: 645.9 km
Apogee: 759.9 km
Inclination: 98.2 °
Period: 98.7 minutes
Semi major axis: 7073 km
RCS: 0.0127 m2 (small)
Launch date: April 17, 2007
Source: United States (US)
Launch site: TYURATAM MISSILE AND SPACE COMPLEX (TTMTR)

Uplink (MHz):
Downlink (MHz): 902-928
Beacon (MHz):
Mode: 9600bps GFSK
Call sign:
Status: Inactive

aabbcc
Your satellite tracking list
Your tracking list is empty




NASA's NSSDC Master Catalog

Two Line Element Set (TLE):
1 31133U 07012R   20099.38362993 +.00000095 +00000-0 +29286-4 0  9999
2 31133 098.1604 044.6940 0080587 173.8673 186.3533 14.59188100690091
Source of the keplerian elements: AFSPC